• In Czech Republic
  • List of Countries
  • For 7 days
  • Water Temperature
  • Satellite Maps
  • Weather Map
  • Weather Widgets
  • user-avatar
    Login

    Hourly Weather Schoten

    Today, 11 December, Monday

    Time Temperature Precipitation Wind Pressure Humidity
    00:00 +2°C° 0 mm 1 mps 736 mmHg 87%
    01:00 +2°C° 0 mm 1 mps 737 mmHg 87%
    02:00 +1°C° 0 mm 2 mps 737 mmHg 88%
    03:00 +1°C° 0 mm 2 mps 737 mmHg 88%
    04:00 0°C° 0 mm 3 mps 736 mmHg 86%
    05:00 -1°C° 0 mm 4 mps 736 mmHg 84%
    06:00 -2°C° 0 mm 6 mps 735 mmHg 81%
    07:00 -2°C° 1.2 mm 7 mps 735 mmHg 83%
    08:00 -2°C° 1.2 mm 8 mps 735 mmHg 86%
    09:00 -2°C° 1.2 mm 8 mps 735 mmHg 88%
    10:00 -3°C° 1.5 mm 9 mps 734 mmHg 89%
    11:00 -3°C° 1.5 mm 9 mps 733 mmHg 91%
    12:00 -3°C° 1.5 mm 9 mps 733 mmHg 92%
    13:00 -1°C° 0.9 mm 8 mps 732 mmHg 93%
    14:00 -1°C° 0.9 mm 8 mps 732 mmHg 94%
    15:00 -1°C° 0.9 mm 7 mps 731 mmHg 95%
    16:00 -1°C° 1.5 mm 7 mps 731 mmHg 95%
    17:00 -1°C° 1.5 mm 7 mps 732 mmHg 95%
    18:00 -1°C° 1.5 mm 7 mps 732 mmHg 95%
    19:00 -1°C° 1.1 mm 8 mps 733 mmHg 94%
    20:00 -1°C° 1.1 mm 8 mps 734 mmHg 93%
    21:00 -2°C° 1.1 mm 8 mps 735 mmHg 93%
    22:00 -1°C° 0.2 mm 8 mps 737 mmHg 92%
    23:00 -1°C° 0.2 mm 7 mps 739 mmHg 92%

    Tomorrow, 12 December, Tuesday

    Time Temperature Precipitation Wind Pressure Humidity
    00:00 -1°C° 0.2 mm 7 mps 740 mmHg 91%
    01:00 -1°C° 0.3 mm 6 mps 742 mmHg 89%
    02:00 -1°C° 0.3 mm 6 mps 744 mmHg 88%
    03:00 0°C° 0.3 mm 5 mps 746 mmHg 86%
    04:00 0°C° 0.2 mm 5 mps 747 mmHg 86%
    05:00 0°C° 0.2 mm 5 mps 749 mmHg 86%
    06:00 0°C° 0.2 mm 4 mps 750 mmHg 86%
    07:00 0°C° 0.3 mm 4 mps 751 mmHg 87%
    08:00 0°C° 0.3 mm 4 mps 752 mmHg 88%
    09:00 0°C° 0.3 mm 4 mps 753 mmHg 90%
    10:00 0°C° 0.4 mm 4 mps 754 mmHg 91%
    11:00 +1°C° 0.4 mm 5 mps 755 mmHg 92%
    12:00 +1°C° 0.4 mm 5 mps 756 mmHg 94%
    13:00 +1°C° 0.1 mm 4 mps 756 mmHg 93%
    14:00 +1°C° 0.1 mm 4 mps 757 mmHg 92%
    15:00 0°C° 0.1 mm 4 mps 758 mmHg 91%
    16:00 0°C° 0 mm 4 mps 758 mmHg 90%
    17:00 0°C° 0 mm 4 mps 758 mmHg 88%
    18:00 -1°C° 0 mm 4 mps 759 mmHg 87%
    19:00 -1°C° 0 mm 5 mps 759 mmHg 87%
    20:00 0°C° 0 mm 5 mps 759 mmHg 87%
    21:00 -1°C° 0 mm 6 mps 759 mmHg 87%
    22:00 -1°C° 0 mm 6 mps 759 mmHg 87%
    23:00 -1°C° 0 mm 7 mps 759 mmHg 88%

    Day after tomorrow, 13 December, Wednesday

    Time Temperature Precipitation Wind Pressure Humidity
    00:00 -1°C° 0 mm 7 mps 758 mmHg 89%
    01:00 0°C° 0 mm 8 mps 758 mmHg 88%
    02:00 0°C° 0 mm 8 mps 757 mmHg 88%
    03:00 0°C° 0 mm 8 mps 756 mmHg 88%
    04:00 0°C° 0.4 mm 9 mps 755 mmHg 88%
    05:00 +1°C° 0.4 mm 10 mps 754 mmHg 87%
    06:00 +1°C° 0.4 mm 10 mps 753 mmHg 87%
    07:00 +2°C° 1 mm 10 mps 753 mmHg 88%
    08:00 +2°C° 1 mm 10 mps 753 mmHg 89%
    09:00 +2°C° 1 mm 9 mps 752 mmHg 89%
    10:00 +4°C° 0.8 mm 8 mps 752 mmHg 89%
    11:00 +4°C° 0.8 mm 7 mps 752 mmHg 90%
    12:00 +4°C° 0.8 mm 6 mps 751 mmHg 90%
    13:00 +4°C° 0.3 mm 6 mps 751 mmHg 90%
    14:00 +5°C° 0.3 mm 6 mps 750 mmHg 91%
    15:00 +5°C° 0.3 mm 6 mps 750 mmHg 91%
    16:00 +5°C° 1.2 mm 7 mps 749 mmHg 91%
    17:00 +5°C° 1.2 mm 7 mps 749 mmHg 91%
    18:00 +5°C° 1.2 mm 8 mps 748 mmHg 91%
    19:00 +5°C° 1.4 mm 7 mps 748 mmHg 91%
    20:00 +5°C° 1.4 mm 7 mps 747 mmHg 91%
    21:00 +5°C° 1.4 mm 6 mps 747 mmHg 91%
    22:00 +5°C° 0.4 mm 6 mps 747 mmHg 90%
    23:00 +4°C° 0.4 mm 6 mps 747 mmHg 88%

    14 December, Thursday

    Time Temperature Precipitation Wind Pressure Humidity
    00:00 +4°C° 0.4 mm 6 mps 746 mmHg 86%
    01:00 +4°C° 0.3 mm 7 mps 746 mmHg 84%
    02:00 +4°C° 0.3 mm 8 mps 745 mmHg 81%
    03:00 +3°C° 0.3 mm 10 mps 745 mmHg 79%
    04:00 +3°C° 0.4 mm 9 mps 745 mmHg 74%
    05:00 +2°C° 0.4 mm 8 mps 745 mmHg 69%
    06:00 +3°C° 0.4 mm 7 mps 746 mmHg 64%
    07:00 +2°C° 0 mm 6 mps 746 mmHg 65%
    08:00 +2°C° 0 mm 6 mps 745 mmHg 67%
    09:00 +2°C° 0 mm 6 mps 745 mmHg 69%
    10:00 +3°C° 0.1 mm 6 mps 745 mmHg 68%
    11:00 +3°C° 0.1 mm 7 mps 745 mmHg 66%
    12:00 +4°C° 0.1 mm 7 mps 744 mmHg 65%
    13:00 +4°C° 0.1 mm 6 mps 744 mmHg 66%
    14:00 +3°C° 0.1 mm 6 mps 744 mmHg 67%
    15:00 +3°C° 0.1 mm 5 mps 744 mmHg 68%
    16:00 +2°C° 0 mm 5 mps 744 mmHg 69%
    17:00 +2°C° 0 mm 5 mps 744 mmHg 71%
    18:00 +2°C° 0 mm 5 mps 744 mmHg 73%
    19:00 +1°C° 0 mm 5 mps 745 mmHg 74%
    20:00 +1°C° 0 mm 5 mps 745 mmHg 75%
    21:00 +1°C° 0 mm 5 mps 745 mmHg 76%
    22:00 +1°C° 0 mm 6 mps 745 mmHg 78%
    23:00 +1°C° 0 mm 6 mps 745 mmHg 79%

    15 December, Friday

    Time Temperature Precipitation Wind Pressure Humidity
    00:00 +1°C° 0 mm 6 mps 745 mmHg 81%
    01:00 0°C° 0.1 mm 7 mps 744 mmHg 81%
    02:00 +2°C° 0.1 mm 7 mps 744 mmHg 81%
    03:00 +2°C° 0.1 mm 7 mps 743 mmHg 81%
    04:00 +2°C° 0.3 mm 7 mps 743 mmHg 81%
    05:00 +2°C° 0.3 mm 7 mps 743 mmHg 82%
    06:00 +2°C° 0.3 mm 7 mps 743 mmHg 82%
    07:00 +3°C° 0.5 mm 6 mps 744 mmHg 83%
    08:00 +3°C° 0.5 mm 6 mps 744 mmHg 84%
    09:00 +3°C° 0.5 mm 6 mps 745 mmHg 85%
    10:00 +3°C° 0.3 mm 6 mps 746 mmHg 80%
    11:00 +4°C° 0.3 mm 7 mps 746 mmHg 75%
    12:00 +4°C° 0.3 mm 7 mps 747 mmHg 71%
    13:00 +4°C° 0.1 mm 7 mps 748 mmHg 72%
    14:00 +3°C° 0.1 mm 6 mps 748 mmHg 74%
    15:00 +3°C° 0.1 mm 5 mps 749 mmHg 75%
    16:00 +3°C° 0.1 mm 5 mps 750 mmHg 76%
    17:00 +3°C° 0.1 mm 5 mps 751 mmHg 78%
    18:00 +3°C° 0.1 mm 5 mps 751 mmHg 79%
    19:00 +2°C° 0.1 mm 5 mps 752 mmHg 80%
    20:00 +2°C° 0.1 mm 5 mps 753 mmHg 80%
    21:00 +2°C° 0.1 mm 5 mps 753 mmHg 81%
    22:00 +2°C° 0.1 mm 5 mps 754 mmHg 81%
    23:00 +2°C° 0.1 mm 5 mps 754 mmHg 81%

    16 December, Saturday

    Time Temperature Precipitation Wind Pressure Humidity
    00:00 +1°C° 0.1 mm 6 mps 755 mmHg 81%
    01:00 +1°C° 0.1 mm 6 mps 755 mmHg 81%
    02:00 +1°C° 0.1 mm 6 mps 756 mmHg 81%
    03:00 +1°C° 0.1 mm 6 mps 756 mmHg 82%
    04:00 +1°C° 0.3 mm 5 mps 757 mmHg 81%
    05:00 +1°C° 0.3 mm 5 mps 757 mmHg 81%
    06:00 +1°C° 0.3 mm 5 mps 757 mmHg 81%
    07:00 +1°C° 0 mm 5 mps 758 mmHg 80%
    08:00 +1°C° 0 mm 5 mps 758 mmHg 79%
    09:00 +1°C° 0 mm 5 mps 759 mmHg 78%
    10:00 +2°C° 0 mm 5 mps 759 mmHg 75%
    11:00 +2°C° 0 mm 5 mps 759 mmHg 71%
    12:00 +3°C° 0 mm 6 mps 760 mmHg 67%
    13:00 +3°C° 0 mm 5 mps 760 mmHg 69%
    14:00 +2°C° 0 mm 5 mps 760 mmHg 71%
    15:00 +3°C° 0 mm 4 mps 760 mmHg 73%
    16:00 +1°C° 0 mm 4 mps 760 mmHg 75%
    17:00 +2°C° 0 mm 3 mps 761 mmHg 77%
    18:00 +1°C° 0 mm 3 mps 761 mmHg 79%
    19:00 +1°C° 0 mm 3 mps 761 mmHg 79%
    20:00 +1°C° 0 mm 3 mps 761 mmHg 79%
    21:00 0°C° 0 mm 4 mps 761 mmHg 79%
    22:00 0°C° 0 mm 4 mps 761 mmHg 79%
    23:00 0°C° 0 mm 4 mps 760 mmHg 79%
    Show more